Location: ActonStarParty
(42.4766°N, 71.4538°W)
Time: 12:20:21
(UTC-05:00)

Daily predictions for brighter satellites

Satellite Brightness Start Highest point End
(mag) Time Altitude Azimuth Time Altitude Azimuth Time Altitude Azimuth
Cosmos 1386 Rocket 4.5 17:46:29 10° S 17:52:30 66° E 17:58:30 10° NNE
Cosmos 2322 4.4 17:47:45 10° N 17:52:58 35° ENE 17:58:09 10° ESE
Cosmos 1238 Rocket 3.5 17:55:38 10° NNE 17:57:51 19° ENE 18:00:03 10° ESE
deb Kosmos-1763 4.2 17:54:09 10° SSW 17:57:57 83° WNW 18:01:46 10° NNE
NOAA 12 4.3 17:53:40 10° SSE 17:58:50 54° ENE 18:04:03 10° N
Cosmos 1975 Rocket 4.3 17:59:03 10° NNW 18:03:12 47° W 18:07:19 10° SSW
SKYMED 2 3.8 18:02:33 10° N 18:06:55 77° WNW 18:11:14 10° SSW
COSMOS 2428 3.7 18:03:21 10° N 18:08:04 26° NE 18:12:46 10° ESE
METEOR-M 4.1 18:04:13 10° SSE 18:09:29 66° ENE 18:14:48 10° N
Meteor 2-4 Rocket 4.4 18:06:37 10° N 18:11:28 30° ENE 18:16:11 10° SE
Cosmos 2237 Rocket 4.1 18:09:50 10° NNE 18:11:36 11° NE 18:13:22 10° ENE
Cosmos 1536 3.9 18:12:26 10° SE 18:15:34 22° E 18:18:42 10° NE
H-2A R/B 3.9 18:13:20 10° ESE 18:16:12 21° ENE 18:19:05 10° NNE
Okean 1 3.4 18:15:24 10° N 18:19:29 84° W 18:23:32 10° S
Cosmos 1812 3.8 18:16:30 10° NNW 18:20:14 49° W 18:23:57 10° SSW
Cosmos 1633 2.7 18:17:45 10° S 18:21:19 50° E 18:24:54 10° NNE
Cosmos 1536 Rocket 3.6 18:17:42 10° N 18:22:12 84° E 18:26:41 10° S
Cosmos 1818 3.8 18:20:32 10° SW 18:25:59 76° NW 18:31:28 10° NNE
Cosmos 407 Rocket 4.1 18:22:04 10° SSW 18:27:16 63° WNW 18:32:34 10° NNE
Cosmos 2360 Rocket 2.2 18:22:12 10° NNW 18:27:52 71° ENE 18:33:30 10° SSE
Cosmos 2219 Rocket 3.4 18:25:01 10° N 18:29:18 22° NE 18:31:49 16° E
Cosmos 2219 3.9 18:24:56 10° SSE 18:29:55 32° ESE 18:34:56 10° NE
Cosmos 676 Rocket 4.1 18:26:35 10° SSW 18:31:47 81° WNW 18:37:02 10° NNE
Cosmos 1570 Rocket 4.2 18:32:52 10° N 18:37:56 47° ENE 18:42:58 10° SE
Meteor 1-11 Rocket 3.8 18:33:28 10° S 18:39:11 67° E 18:45:04 10° NNE
DELTA 2 R/B (1) 4.4 18:41:09 10° W 18:46:30 45° SSW 18:50:43 16° SE
Cosmos 1140 Rocket 3.4 18:41:43 10° SSW 18:46:51 84° ESE 18:52:02 10° NNE
Resurs 01 Rocket 1.5 18:45:07 10° SSE 18:49:28 65° ENE 18:53:51 10° N
Cosmos 1602 3.9 18:45:52 10° SSW 18:49:44 75° W 18:53:39 10° N
Cosmos 1300 Rocket 3.6 18:46:50 10° S 18:51:15 82° W 18:55:42 10° N
Cosmos 614 Rocket 3.8 18:49:39 10° SSW 18:54:43 75° ESE 18:59:47 10° NNE
Spot 1 4.4 18:53:24 28° ESE 18:54:55 39° ENE 18:58:47 10° N
Abrixas rocket 3.4 18:54:12 10° SSW 18:56:51 27° SSE 18:56:51 27° SSE
ALOS 2.3 18:52:48 10° S 18:57:28 81° WSW 19:02:10 10° NNW
Cosmos 2181 Rocket 4.2 18:51:56 10° N 18:58:11 75° W 19:04:29 10° S
Spot 2 Rocket 3.4 18:56:46 10° SSE 19:01:49 83° ENE 19:06:55 10° NNW
USA 229 DEB 3.9 18:55:58 10° NNW 19:02:58 56° NE 19:07:02 26° ESE
USA 229 3.9 18:56:04 10° NNW 19:03:04 55° NE 19:07:06 26° ESE
Cosmos 2333 Rocket 3.0 18:57:58 10° N 19:03:04 32° NE 19:04:11 29° ENE
Cosmos 2208 Rocket 4.0 18:59:27 10° NNW 19:04:57 75° ENE 19:09:51 13° SSE
Helios 1A 3.1 19:04:16 36° ESE 19:05:32 50° ENE 19:09:34 10° N
Cosmos 1340 4.5 19:03:10 10° NNW 19:06:37 33° W 19:10:02 10° SSW
Resurs 1-3 3.5 19:02:58 10° SSE 19:07:20 84° ENE 19:11:46 10° NNW
Cosmos 2074 Rocket 3.9 19:07:29 10° S 19:13:42 76° E 19:20:00 10° N
Cosmos 1850 Rocket 4.0 19:08:41 10° SSW 19:13:59 88° WNW 19:19:21 10° NNE
Cosmos 2184 Rocket 3.9 19:10:22 10° S 19:16:40 77° E 19:22:56 10° N
Helios 1B rocket 2.5 19:13:38 10° NNE 19:18:13 53° SE 19:21:50 10° S
Envisat 3.5 19:18:30 38° ENE 19:18:30 38° ENE 19:22:55 10° N
Intercosmos 24 4.3 19:17:09 10° S 19:21:21 87° E 19:27:27 10° N
USA 186 4.3 19:24:36 12° N 19:24:36 12° N 19:24:52 10° N
Okean 2 3.3 19:18:01 10° N 19:22:01 64° ENE 19:22:01 64° ENE
ERS-1 Rocket 4.4 19:25:25 22° NNE 19:25:25 22° NNE 19:27:48 10° N
SAR-Lupe-1 4.1 19:26:19 73° NNW 19:26:19 73° NNW 19:29:36 10° NNW
Okean 1 Rocket 4.2 19:21:50 10° SSW 19:26:08 45° WNW 19:30:28 10° N
Meteor 1-5 Rocket 4.2 19:20:55 10° S 19:26:55 86° E 19:32:51 10° N
Genesis I 3.7 19:23:22 10° NW 19:27:15 58° WSW 19:28:05 46° S
Cosmos 1892 Rocket 4.0 19:26:02 10° N 19:29:15 45° NNE 19:29:15 45° NNE
SAR-Lupe-4 3.9 19:30:26 56° SW 19:30:51 62° WSW 19:34:25 10° NNW
NOSS 3-1 (C) 4.4 19:28:04 10° NNW 19:35:12 46° NE 19:36:57 40° ENE
Nadezhda 3 Rocket 3.9 19:29:44 10° N 19:35:48 57° E 19:36:38 53° ESE
Gbstr 26 Del rocket 3.2 19:33:23 10° WSW 19:36:52 54° NW 19:36:52 54° NW
GEOS 3 Rocket 4.2 19:39:42 17° NNE 19:43:37 55° NW 19:48:45 10° SW
Cosmos 2285 Rocket 4.0 19:38:12 10° NNW 19:44:40 83° WSW 19:47:50 32° SSE
CZ-2D R/B 4.5 19:43:32 28° SSW 19:44:59 40° W 19:48:37 10° NNW
Cosmos 1025 Rocket 4.0 19:41:08 10° NNW 19:45:19 46° W 19:48:41 15° SSW
Cosmos 2154 Rocket 3.9 19:39:21 10° S 19:45:38 69° E 19:51:56 10° NNE
Cosmos 405 Rocket 4.1 19:42:36 10° N 19:45:01 34° NNW 19:45:01 34° NNW
Meteor 2-13 Rocket 4.3 19:45:31 10° S 19:51:35 86° W 19:57:43 10° N
COSMOS 2428 3.4 19:47:07 10° NW 19:52:38 52° WSW 19:55:38 26° S
Cosmos 2237 Rocket 2.6 19:51:18 10° NNW 19:55:53 50° NNE 19:55:53 50° NNE
NOSS 0 Rocket 3.8 20:02:16 10° NNW 20:08:24 85° W 20:08:24 85° W
Cosmos 2219 Rocket 2.5 20:08:11 10° NNW 20:13:35 62° WSW 20:13:35 62° WSW
Cosmos 2219 4.4 20:08:33 10° SW 20:13:56 40° WNW 20:19:19 10° N
SL-16 R/B 3.9 20:24:56 10° NNW 20:27:20 24° N 20:27:20 24° N
Cosmos 2333 Rocket 3.5 20:42:03 10° NW 20:46:14 37° WNW 20:46:14 37° WNW
NOSS 3-1 (A) 4.5 20:59:15 10° NW 21:04:58 56° NW 21:04:58 56° NW
ATLAS 2AS CENTAUR R/B 4.2 21:05:17 10° NNW 21:10:18 34° N 21:10:18 34° N
